Theta_e
319 321 323 323 323 322 322 323 324 324 324 326 326 326 323 317 314 315 319 318 315 316 317 319 323 324 323 324 325 327 326 327 327 327 326 325 325 326 324 322 322 322 323 322
320 321 320 320 321 323 322 322 323 324 325 325 326 325 323 321 321 316 316 319 320 320 316 317 318 322 324 323 322 323 324 327 326 327 326 326 324 323 323 323 322 321 323 324
320 319 318 321 322 323 324 325 322 324 323 324 323 327 325 324 320 316 317 318 320 322 322 321 318 318 320 322 322 323 321 323 324 325 327 327 326 325 325 325 323 322 322 323
320 318 319 321 322 322 325 323 323 326 326 330 323 330 326 324 324 321 318 319 321 322 324 324 320 318 317 317 319 322 324 323 323 324 326 325 323 324 323 324 322 321 322 322
318 319 320 322 321 321 324 321 322 323 326 322 319 321 324 322 322 321 318 319 321 327 326 325 326 321 317 318 317 319 322 325 325 324 325 325 325 324 324 323 323 322 321 321
317 316 318 320 320 320 321 321 321 321 321 324 323 321 324 319 315 317 318 318 320 320 322 325 326 326 324 319 318 317 320 322 324 326 326 326 324 324 325 323 322 322 322 322
318 317 316 317 321 320 322 323 323 323 321 325 318 321 324 317 314 313 313 317 319 319 319 321 323 324 324 323 321 318 318 321 323 325 326 326 325 326 325 322 321 319 320 321
320 319 318 317 318 319 321 322 325 326 323 321 314 323 321 316 317 320 320 321 319 318 318 319 320 321 321 322 322 322 319 320 322 323 324 325 326 325 324 322 320 318 319 319
319 320 317 317 316 318 321 322 318 317 304 311 314 311 310 311 311 311 311 313 319 319 319 318 320 320 321 321 321 322 321 319 321 322 322 323 325 325 322 320 319 316 317 318
317 319 316 316 317 317 318 317 320 318 319 318 314 311 316 313 314 318 310 309 314 317 319 319 316 316 318 319 320 320 320 320 319 321 321 321 322 322 322 322 319 316 318 320
317 317 316 316 318 320 319 320 320 318 316 321 314 314 307 314 312 310 309 312 313 315 316 318 318 316 315 315 316 316 317 318 318 319 321 321 323 322 322 323 322 320 321 322
316 314 317 318 313 316 318 319 320 322 320 311 311 315 308 308 308 306 306 309 311 313 314 314 315 314 314 313 314 315 315 316 317 318 319 322 323 323 323 323 323 323 324 325
315 313 316 315 315 313 316 319 320 317 313 317 319 318 309 304 305 306 307 310 311 310 310 311 312 313 313 312 313 315 315 315 316 318 320 321 322 322 321 320 321 321 323 324
314 312 313 317 313 315 318 318 318 319 320 318 317 317 314 310 306 305 308 309 309 309 309 309 310 311 311 311 311 312 314 314 314 314 314 314 315 315 315 317 319 320 321 322
313 311 312 312 311 311 316 317 318 319 319 321 319 318 317 315 312 307 307 307 308 308 308 309 309 310 309 310 310 310 310 310 310 310 310 310 310 310 310 310 309 309 311 312
307 310 311 313 312 312 309 314 318 318 318 319 319 318 313 312 313 306 309 307 307 308 308 309 309 310 310 310 310 310 310 310 310 309 309 309 309 309 309 309 308 307 307 308
309 309 311 313 312 313 314 313 314 318 316 317 318 318 310 309 306 309 312 309 309 309 309 309 310 310 310 310 309 309 309 309 309 309 309 309 309 309 309 309 309 308 309 309
310 310 311 314 309 316 313 310 311 313 315 316 316 316 314 314 314 314 314 313 312 310 309 309 309 309 309 309 309 309 310 310 310 309 309 309 309 309 309 309 310 310 310 310
306 308 310 308 312 311 312 308 309 312 314 313 314 315 314 313 313 313 315 315 313 310 309 310 309 309 309 309 310 310 310 310 310 309 309 308 309 309 309 309 309 309 310 310
305 306 309 307 302 314 309 308 309 308 313 312 313 313 313 312 313 313 314 315 316 313 309 311 311 310 309 309 310 310 310 309 310 309 309 309 308 308 309 309 310 310 310 310
306 306 306 308 308 304 307 306 309 311 313 310 312 312 312 312 313 314 314 314 315 315 314 312 311 310 310 309 309 309 310 309 309 309 308 308 308 308 308 308 308 308 309 310
306 307 308 307 309 310 305 306 312 310 312 311 312 312 311 311 313 313 313 313 313 314 313 311 310 310 309 309 309 309 309 308 308 307 307 307 307 307 307 307 307 307 307 308
309 307 306 308 308 305 306 307 307 305 305 306 307 308 309 311 311 311 311 312 312 312 311 309 308 308 308 308 307 307 306 306 307 307 307 306 306 305 305 305 304 304 305 305
302 304 304 305 307 305 307 306 304 304 304 306 305 306 308 309 309 309 308 309 309 308 307 307 306 306 306 306 306 305 306 306 306 305 305 304 304 304 303 303 304 304 304 304
300 298 301 302 303 301 300 296 294 301 303 303 304 306 307 306 308 307 306 306 305 305 305 305 304 304 304 304 305 305 305 305 305 305 305 305 304 304 303 302 302 301 301 301
290 295 302 303 286 286 293 294 292 295 297 302 302 303 304 305 305 307 306 305 304 303 303 302 303 303 303 303 304 304 305 306 305 305 304 304 304 303 302 301 300 300 301 302
Wind_Speed
25 7 18 26 16 2 6 9 10 6 5 6 12 17 19 25 25 26 25 33 36 37 39 39 41 40 41 42 42 40 39 38 38 39 39 38 38 35 34 32 30 28 27 26
5 18 17 8 9 12 5 9 11 4 4 3 9 18 20 23 23 32 32 34 32 39 42 40 41 42 43 43 42 42 43 41 41 40 40 41 39 39 36 34 34 32 31 28
21 4 15 11 14 16 16 18 7 5 2 4 4 16 21 22 21 31 37 39 41 42 40 41 45 45 44 45 45 43 43 44 42 41 41 42 42 42 41 41 39 38 34 32
9 13 17 15 14 17 19 9 5 4 3 4 6 10 18 12 21 23 31 36 46 49 47 44 43 46 48 45 43 43 43 43 43 42 44 43 43 47 45 43 41 40 37 35
11 13 17 17 20 17 8 9 11 7 6 3 4 4 7 9 14 16 24 37 43 54 53 51 48 45 47 41 45 44 44 42 41 42 43 43 44 44 42 40 40 40 38 37
8 5 13 14 12 19 8 5 3 2 2 6 8 8 11 7 7 9 18 30 44 46 48 52 49 49 47 45 44 45 47 44 42 42 44 44 42 42 43 42 40 39 38 38
11 10 2 5 7 6 9 9 3 4 4 10 8 10 20 5 5 7 9 27 31 31 35 43 47 47 45 45 43 41 46 48 44 42 43 42 41 41 41 40 39 39 39 38
10 7 19 11 7 8 17 11 3 5 5 2 1 10 7 12 24 27 26 37 34 25 21 30 32 35 45 44 43 43 43 46 46 44 43 41 40 41 40 40 39 39 38 36
8 6 15 12 5 11 6 7 2 2 2 2 5 8 6 13 10 17 23 27 36 34 23 23 26 26 29 40 43 42 43 44 47 47 42 41 40 40 39 38 38 38 36 36
5 4 13 11 7 5 10 11 4 3 4 5 6 6 9 4 14 19 8 16 27 34 36 29 20 20 25 29 32 39 43 43 45 46 44 41 39 38 38 39 39 38 37 37
3 5 3 11 15 16 6 8 6 5 4 6 3 8 9 19 15 7 11 19 25 26 25 28 29 21 18 22 29 34 35 37 41 44 44 42 40 38 38 39 39 39 37 37
6 2 4 16 2 14 17 11 13 8 11 4 2 11 4 8 5 8 20 22 20 22 25 22 28 27 25 23 23 29 29 29 31 33 36 38 38 37 37 38 37 37 37 36
10 4 3 4 2 2 7 15 19 10 2 12 8 10 5 4 4 11 14 14 10 10 15 19 25 26 26 21 20 22 26 25 26 28 31 33 35 37 37 37 38 38 37 37
17 4 6 11 2 7 13 18 20 19 8 11 16 10 7 7 5 8 8 7 9 11 13 15 17 19 20 20 19 19 20 22 24 26 27 29 32 33 35 36 37 38 38 37
5 3 5 9 4 3 8 21 23 22 23 11 22 19 15 17 12 8 12 12 12 14 15 15 16 15 18 20 19 18 18 19 20 21 23 24 26 30 32 35 35 36 36 35
3 2 1 3 12 6 4 11 20 22 22 23 29 32 11 16 23 11 15 17 16 17 18 15 15 14 14 15 14 13 12 12 14 16 17 18 21 24 25 27 27 28 27 27
8 5 3 4 6 5 8 23 17 22 21 27 27 38 5 9 9 17 24 21 22 21 19 20 19 15 13 12 12 10 9 10 10 12 14 17 18 20 20 21 21 21 22 23
5 5 4 3 2 9 7 9 21 22 22 27 30 30 15 22 26 27 28 27 27 26 22 23 17 14 12 14 13 12 10 9 9 10 13 15 15 15 16 16 17 18 19 20
5 3 2 3 3 8 10 7 11 14 26 23 22 30 32 22 12 29 39 35 32 28 25 19 18 15 15 16 14 13 13 14 13 13 13 15 16 17 18 17 17 17 17 17
10 6 3 1 4 6 11 6 14 4 17 24 23 28 24 16 11 20 37 39 46 34 28 24 27 22 21 20 19 19 17 17 17 18 18 18 19 20 20 19 19 19 19 19
8 9 17 13 10 8 7 4 18 10 14 4 31 35 26 12 28 56 36 36 41 48 43 35 29 24 20 21 21 19 18 20 21 22 23 22 22 24 23 23 23 22 24 25
9 8 6 9 6 16 8 10 18 18 24 23 21 20 28 36 46 49 41 36 35 41 36 28 28 26 23 22 21 22 22 22 23 23 23 23 24 23 23 22 22 22 22 23
7 7 5 9 8 5 18 9 12 5 10 10 13 11 11 23 34 38 36 36 35 31 28 26 25 24 22 22 21 19 20 20 19 21 22 23 23 22 22 21 21 21 21 20
4 5 4 2 7 6 12 18 8 11 17 18 13 13 9 12 16 25 23 24 27 27 27 26 24 22 21 19 18 18 18 18 18 18 17 17 18 18 18 17 17 17 16 15
3 4 4 7 3 9 5 12 20 15 15 16 14 13 10 9 9 11 17 21 23 23 23 23 23 21 19 17 16 16 16 15 14 12 12 12 11 11 12 12 11 10 8 7
5 4 5 4 6 8 8 19 25 22 18 16 17 14 10 10 13 13 18 20 21 21 21 20 19 17 16 15 14 13 12 12 11 10 8 8 7 6 5 6 9 8 7 7
Wind_Direction
185 200 208 207 211 95 179 205 227 236 162 160 239 256 260 261 261 263 254 243 238 238 241 237 235 234 234 235 235 233 232 233 233 233 233 233 233 233 234 233 235 235 237 238
183 217 218 204 201 226 219 213 226 316 161 196 238 258 258 258 247 248 250 250 249 245 244 239 239 236 235 237 238 236 235 233 233 235 238 238 238 238 240 240 239 238 238 239
206 205 201 203 189 208 228 225 200 220 341 256 332 265 262 255 244 244 248 250 256 250 245 241 236 235 235 235 236 237 235 235 234 234 237 238 239 242 242 241 242 240 240 240
239 196 198 203 208 198 230 193 211 183 219 239 164 287 257 251 239 241 244 243 249 250 247 246 242 236 235 236 236 238 237 235 235 235 235 237 238 237 238 240 243 242 243 244
205 183 202 195 207 195 228 161 199 228 274 266 174 278 271 236 230 237 238 239 243 248 244 243 239 239 239 239 238 237 239 237 236 236 237 237 239 243 247 246 247 245 245 246
206 220 198 205 185 189 127 83 80 115 149 246 192 194 256 229 211 234 242 241 242 242 242 244 244 242 241 241 243 240 238 240 238 237 237 240 241 242 244 245 244 245 246 246
178 187 187 182 154 174 156 138 200 184 194 242 184 196 242 251 236 249 260 261 252 255 249 246 244 243 239 238 239 240 238 238 239 241 240 242 246 245 248 249 248 246 245 245
177 186 178 187 197 189 196 185 196 221 197 197 235 225 244 234 242 258 263 261 263 263 255 249 249 245 240 237 235 238 240 238 239 241 242 242 245 247 250 252 252 251 249 247
175 224 176 186 175 161 166 201 185 89 147 351 222 285 283 269 246 255 245 250 252 252 247 250 244 241 239 236 236 237 238 238 239 241 243 244 244 247 249 251 252 252 252 251
186 242 188 187 212 234 191 139 158 154 218 239 260 278 240 304 253 250 251 225 251 251 246 248 252 239 237 235 236 239 240 240 240 241 243 244 247 250 251 252 253 252 253 255
167 208 160 150 204 184 158 182 202 170 190 225 263 255 208 216 238 263 274 270 263 243 242 242 234 235 237 230 234 235 237 238 239 240 241 242 244 249 252 253 254 255 257 260
189 171 187 208 141 218 216 208 191 201 218 231 213 257 235 217 242 268 272 279 270 255 240 234 228 230 227 232 235 229 230 233 236 238 240 241 244 249 252 256 258 259 259 261
168 184 153 154 298 312 203 211 214 212 37 213 209 246 294 203 230 242 255 272 253 249 232 230 226 232 236 232 225 222 225 230 233 236 240 242 243 245 249 252 255 258 261 262
160 176 219 230 131 136 208 208 214 220 211 227 222 242 253 305 296 295 275 248 251 240 234 231 224 223 223 217 216 214 218 224 230 234 238 241 243 246 248 251 254 256 258 259
182 194 208 259 280 345 211 215 216 218 233 245 246 254 258 277 282 287 281 289 259 244 230 220 217 212 207 206 209 209 212 219 225 228 231 237 244 246 248 250 251 253 253 253
136 212 102 251 263 232 263 239 211 213 229 243 261 267 267 232 244 252 260 256 262 246 239 219 192 189 189 189 190 192 195 205 217 226 235 238 242 246 246 245 244 244 243 242
163 159 142 257 220 236 247 234 219 216 222 222 235 239 155 229 230 235 248 246 249 250 231 206 178 170 176 179 177 171 181 204 221 235 242 243 241 243 246 246 243 240 239 239
165 172 178 267 134 222 246 178 213 227 231 230 241 247 242 244 249 258 259 257 255 248 232 207 202 196 187 189 188 184 191 214 227 238 242 248 251 251 246 242 240 240 239 240
169 145 211 207 187 316 300 228 193 195 247 238 244 245 245 247 265 260 250 263 271 253 222 222 235 235 219 208 208 211 216 230 241 246 246 248 250 248 246 247 248 249 250 252
188 186 200 160 199 216 240 212 176 100 278 228 224 241 237 213 235 255 248 245 246 256 226 255 248 244 227 221 224 228 226 232 237 240 243 244 244 245 250 250 247 247 248 245
192 207 219 229 244 275 231 127 139 148 241 73 223 237 237 205 227 246 253 246 242 248 247 244 236 239 233 226 226 231 233 232 231 233 237 244 248 249 249 246 247 242 240 242
174 178 201 220 235 257 139 144 171 223 262 305 285 241 224 227 239 245 247 245 240 242 243 231 227 225 221 222 227 232 231 231 234 239 246 251 255 256 258 259 260 259 260 262
209 200 187 194 212 288 197 207 216 339 330 320 297 290 265 247 246 249 247 243 237 232 229 224 217 219 221 228 226 228 231 235 242 247 253 257 260 260 258 255 255 257 255 254
246 209 228 72 250 245 272 262 287 313 314 316 312 297 282 259 258 252 240 226 218 212 210 210 210 212 212 214 220 227 238 247 248 249 253 258 261 256 254 249 247 247 245 239
205 8 263 258 335 325 75 10 337 327 317 306 291 292 294 268 234 225 215 206 206 205 205 207 208 207 209 213 219 224 225 227 231 236 241 241 240 242 237 235 234 231 222 219
168 184 205 225 14 311 295 332 328 329 328 315 319 309 278 248 236 212 211 209 208 205 202 202 205 210 212 213 208 205 206 209 209 205 205 204 200 196 184 186 186 173 186 190